Location: Unspecified
(48.8656°N, 0.0000°E)
Time: 04:35:56
(UTC+00:00)

SR - Pass Details

Date: 03 July 2019
Orbit: 580 x 876 km, 66.7° (Epoch: 17 July)

Event Time Altitude Azimuth Distance (km) Brightness Sun altitude
Rises 11:08:42 0° 308° (NW) 3,099 ? 61.9°
Reaches altitude 10° 11:12:03 10° 284° (WNW) 2,241 ? 62.1°
Maximum altitude 11:14:40 14° 253° (WSW) 2,010 ? 62.3°
Drops below altitude 10° 11:17:23 10° 223° (SW) 2,334 ? 62.5°
Sets 11:21:00 0° 199° (SSW) 3,320 ? 62.7°
